User: anonymous   Login
Location: *
(60.1759°S, 155.0663°W)
Time: 22:55:49
(UTC+00:00)
Language:

Iridium 4 Rocket - Orbit

View from above orbital plane
View from above orbital plane
View from above satellite
View from above satellite

Ground track
Ground track

The orbit data is extracted from the following two-line orbital elements,

1 24797U 97020F   19315.38851977  .00000116  00000-0  20311-4 0  9993
2 24797  86.9001  32.1101 0222842 272.3053 132.2650 14.44141189184532
Epoch (UTC): 11 November 2019 09:19:28
Eccentricity: 0.0222842
inclination: 86.9001°
perigee height: 586 km
apogee height: 903 km
right ascension of ascending node: 32.1101°
argument of perigee: 272.3053°
revolutions per day: 14.44141189
mean anomaly at epoch: 132.2650°
orbit number at epoch: 18453

The dashed part of the orbit path shows where the satellite is in the earth's shadow,  

DLR